| time (UTC) | temp C | wind direction | speed KPH | gust KPH | rain 1hr cm | rain 24hr cm | rain mn cm | humidity % | barometer mb |
| 20260510205421 | 30 | 255 | 0.0 | 6.4 | 0.00 | 0.00 | 0.00 | 28 | 1015.6 |
| 20260510204917 | 31 | 287 | 0.0 | 4.8 | 0.00 | 0.00 | 0.00 | 29 | 1015.4 |
| 20260510204414 | 31 | 331 | 3.2 | 3.2 | 0.00 | 0.00 | 0.00 | 27 | 1015.5 |
| 20260510203910 | 31 | 117 | 3.2 | 6.4 | 0.00 | 0.00 | 0.00 | 27 | 1015.6 |
| 20260510203409 | 31 | 159 | 3.2 | 3.2 | 0.00 | 0.00 | 0.00 | 26 | 1015.4 |
| 20260510202908 | 32 | 229 | 1.6 | 3.2 | 0.00 | 0.00 | 0.00 | 26 | 1015.7 |
| 20260510202404 | 32 | 314 | 0.0 | 1.6 | 0.00 | 0.00 | 0.00 | 25 | 1015.6 |
| 20260510201901 | 31 | 11 | 0.0 | 1.6 | 0.00 | 0.00 | 0.00 | 27 | 1015.6 |
| 20260510201358 | 31 | 320 | 0.0 | 4.8 | 0.00 | 0.00 | 0.00 | 26 | 1015.6 |
| 20260510200855 | 31 | 223 | 3.2 | 4.8 | 0.00 | 0.00 | 0.00 | 27 | 1015.6 |
| 20260510200354 | 31 | 1 | 0.0 | 3.2 | 0.00 | 0.00 | 0.00 | 27 | 1015.6 |
| 20260510195848 | 31 | 275 | 0.0 | 4.8 | 0.00 | 0.00 | 0.00 | 25 | 1015.6 |
| 20260510195345 | 32 | 9 | 0.0 | 3.2 | 0.00 | 0.00 | 0.00 | 26 | 1015.5 |
| 20260510194840 | 32 | 280 | 1.6 | 4.8 | 0.00 | 0.00 | 0.00 | 25 | 1015.8 |
| 20260510194337 | 31 | 43 | 0.0 | 3.2 | 0.00 | 0.00 | 0.00 | 27 | 1015.8 |
| 20260510193833 | 31 | 17 | 0.0 | 1.6 | 0.00 | 0.00 | 0.00 | 27 | 1015.9 |
| 20260510193328 | 31 | 349 | 0.0 | 1.6 | 0.00 | 0.00 | 0.00 | 27 | 1015.8 |
| 20260510192824 | 31 | 262 | 1.6 | 3.2 | 0.00 | 0.00 | 0.00 | 28 | 1016.1 |
| 20260510192319 | 31 | 174 | 3.2 | 6.4 | 0.00 | 0.00 | 0.00 | 29 | 1015.9 |
| 20260510191816 | 30 | 125 | 1.6 | 3.2 | 0.00 | 0.00 | 0.00 | 31 | 1016.1 |
| 20260510191311 | 30 | 194 | 4.8 | 9.7 | 0.00 | 0.00 | 0.00 | 30 | 1015.9 |
| 20260510190810 | 30 | 325 | 0.0 | 4.8 | 0.00 | 0.00 | 0.00 | 29 | 1016.0 |
| 20260510190307 | 31 | 270 | 3.2 | 3.2 | 0.00 | 0.00 | 0.00 | 27 | 1016.2 |
| 20260510185803 | 31 | 215 | 3.2 | 3.2 | 0.00 | 0.00 | 0.00 | 27 | 1016.3 |
| 20260510185301 | 31 | 355 | 0.0 | 4.8 | 0.00 | 0.00 | 0.00 | 27 | 1016.3 |
| 20260510184758 | 30 | 208 | 1.6 | 4.8 | 0.00 | 0.00 | 0.00 | 28 | 1016.3 |
| 20260510184255 | 30 | 327 | 1.6 | 4.8 | 0.00 | 0.00 | 0.00 | 28 | 1016.4 |
| 20260510183755 | 31 | 237 | 1.6 | 4.8 | 0.00 | 0.00 | 0.00 | 27 | 1016.6 |
| 20260510183250 | 30 | 287 | 1.6 | 3.2 | 0.00 | 0.00 | 0.00 | 29 | 1016.6 |
| 20260510182746 | 30 | 144 | 1.6 | 6.4 | 0.00 | 0.00 | 0.00 | 31 | 1016.6 |
| 20260510182242 | 31 | 122 | 4.8 | 4.8 | 0.00 | 0.00 | 0.00 | 28 | 1016.6 |
| 20260510181740 | 31 | 167 | 3.2 | 9.7 | 0.00 | 0.00 | 0.00 | 27 | 1016.8 |
| 20260510181236 | 31 | 67 | 1.6 | 3.2 | 0.00 | 0.00 | 0.00 | 28 | 1016.9 |
| 20260510180732 | 31 | 328 | 1.6 | 3.2 | 0.00 | 0.00 | 0.00 | 28 | 1016.9 |
| 20260510180230 | 31 | 66 | 0.0 | 1.6 | 0.00 | 0.00 | 0.00 | 30 | 1016.6 |
| 20260510175726 | 31 | 33 | 0.0 | 3.2 | 0.00 | 0.00 | 0.00 | 28 | 1016.8 |
| 20260510175222 | 30 | 121 | 0.0 | 1.6 | 0.00 | 0.00 | 0.00 | 29 | 1017.0 |
| 20260510174720 | 30 | 86 | 1.6 | 4.8 | 0.00 | 0.00 | 0.00 | 29 | 1016.8 |
| 20260510174217 | 30 | 242 | 1.6 | 4.8 | 0.00 | 0.00 | 0.00 | 30 | 1016.8 |
| 20260510173712 | 30 | 55 | 0.0 | 9.7 | 0.00 | 0.00 | 0.00 | 30 | 1016.8 |
| 20260510173208 | 31 | 20 | 0.0 | 6.4 | 0.00 | 0.00 | 0.00 | 29 | 1016.7 |
| 20260510172704 | 29 | 45 | 0.0 | 1.6 | 0.00 | 0.00 | 0.00 | 32 | 1016.9 |
| 20260510172200 | 30 | 240 | 0.0 | 3.2 | 0.00 | 0.00 | 0.00 | 31 | 1017.0 |
| 20260510171657 | 30 | 36 | 0.0 | 1.6 | 0.00 | 0.00 | 0.00 | 31 | 1016.8 |
| 20260510171155 | 28 | 331 | 0.0 | 3.2 | 0.00 | 0.00 | 0.00 | 33 | 1017.0 |
| 20260510170651 | 29 | 238 | 6.4 | 9.7 | 0.00 | 0.00 | 0.00 | 32 | 1017.2 |
| 20260510170147 | 29 | 256 | 3.2 | 3.2 | 0.00 | 0.00 | 0.00 | 33 | 1016.9 |
| 20260510165644 | 30 | 346 | 1.6 | 4.8 | 0.00 | 0.00 | 0.00 | 31 | 1016.9 |
| 20260510165139 | 30 | 38 | 0.0 | 1.6 | 0.00 | 0.00 | 0.00 | 32 | 1017.2 |
| 20260510164637 | 30 | 87 | 1.6 | 3.2 | 0.00 | 0.00 | 0.00 | 31 | 1017.1 |
| 20260510164134 | 29 | 157 | 1.6 | 4.8 | 0.00 | 0.00 | 0.00 | 32 | 1017.0 |
| 20260510163629 | 29 | 24 | 1.6 | 3.2 | 0.00 | 0.00 | 0.00 | 31 | 1017.2 |
| 20260510163126 | 28 | 216 | 3.2 | 4.8 | 0.00 | 0.00 | 0.00 | 33 | 1017.1 |
| 20260510162626 | 28 | 54 | 0.0 | 3.2 | 0.00 | 0.00 | 0.00 | 37 | 1017.2 |
| 20260510162123 | 27 | 78 | 1.6 | 1.6 | 0.00 | 0.00 | 0.00 | 40 | 1017.1 |
| 20260510161618 | 28 | 57 | 0.0 | 1.6 | 0.00 | 0.00 | 0.00 | 39 | 1017.3 |
| 20260510161115 | 28 | 91 | 0.0 | 1.6 | 0.00 | 0.00 | 0.00 | 38 | 1017.2 |
| 20260510160612 | 28 | 41 | 1.6 | 3.2 | 0.00 | 0.00 | 0.00 | 38 | 1017.3 |
| 20260510160112 | 28 | 120 | 0.0 | 3.2 | 0.00 | 0.00 | 0.00 | 40 | 1017.5 |
| 20260510155609 | 28 | 205 | 1.6 | 4.8 | 0.00 | 0.00 | 0.00 | 39 | 1017.7 |
| 20260510155105 | 28 | 85 | 0.0 | 1.6 | 0.00 | 0.00 | 0.00 | 41 | 1017.6 |
| 20260510154601 | 27 | 163 | 3.2 | 4.8 | 0.00 | 0.00 | 0.00 | 41 | 1017.8 |
| 20260510154056 | 27 | 53 | 0.0 | 4.8 | 0.00 | 0.00 | 0.00 | 41 | 1017.9 |
| 20260510153551 | 27 | 116 | 1.6 | 3.2 | 0.00 | 0.00 | 0.00 | 41 | 1017.7 |
| 20260510153048 | 26 | 47 | 0.0 | 1.6 | 0.00 | 0.00 | 0.00 | 44 | 1017.8 |
| 20260510152545 | 26 | 136 | 0.0 | 1.6 | 0.00 | 0.00 | 0.00 | 42 | 1017.7 |
| 20260510152041 | 26 | 74 | 0.0 | 4.8 | 0.00 | 0.00 | 0.00 | 44 | 1017.7 |
| 20260510151538 | 25 | 50 | 0.0 | 3.2 | 0.00 | 0.00 | 0.00 | 47 | 1017.7 |
| 20260510151036 | 25 | 60 | 0.0 | 0.0 | 0.00 | 0.00 | 0.00 | 48 | 1017.4 |
| 20260510150530 | 25 | 64 | 0.0 | 1.6 | 0.00 | 0.00 | 0.00 | 48 | 1017.6 |
| 20260510150027 | 25 | 175 | 3.2 | 6.4 | 0.00 | 0.00 | 0.00 | 48 | 1017.5 |
| 20260510145524 | 25 | 62 | 0.0 | 1.6 | 0.00 | 0.00 | 0.00 | 53 | 1017.6 |
| 20260510145020 | 24 | 53 | 0.0 | 1.6 | 0.00 | 0.00 | 0.00 | 53 | 1017.8 |
| 20260510144517 | 24 | 26 | 0.0 | 1.6 | 0.00 | 0.00 | 0.00 | 53 | 1017.5 |
| 20260510144013 | 24 | 342 | 0.0 | 1.6 | 0.00 | 0.00 | 0.00 | 51 | 1017.5 |
| 20260510143508 | 23 | 64 | 0.0 | 1.6 | 0.00 | 0.00 | 0.00 | 53 | 1017.5 |
| 20260510143005 | 23 | 52 | 0.0 | 0.0 | 0.00 | 0.00 | 0.00 | 55 | 1017.5 |
| 20260510142502 | 23 | 108 | 0.0 | 1.6 | 0.00 | 0.00 | 0.00 | 56 | 1017.5 |
| 20260510141958 | 23 | 124 | 1.6 | 1.6 | 0.00 | 0.00 | 0.00 | 53 | 1017.5 |
| 20260510141455 | 23 | 47 | 0.0 | 0.0 | 0.00 | 0.00 | 0.00 | 55 | 1017.7 |
| 20260510140952 | 23 | 210 | 1.6 | 1.6 | 0.00 | 0.00 | 0.00 | 56 | 1017.5 |
| 20260510140448 | 23 | 52 | 0.0 | 1.6 | 0.00 | 0.00 | 0.00 | 57 | 1017.5 |
| 20260510135948 | 23 | 225 | 1.6 | 3.2 | 0.00 | 0.00 | 0.00 | 60 | 1017.8 |
| 20260510135443 | 23 | 70 | 0.0 | 3.2 | 0.00 | 0.00 | 0.00 | 61 | 1017.6 |
| 20260510134941 | 23 | 63 | 0.0 | 3.2 | 0.00 | 0.00 | 0.00 | 61 | 1017.5 |
| 20260510134437 | 22 | 65 | 0.0 | 0.0 | 0.00 | 0.00 | 0.00 | 63 | 1017.5 |
| 20260510133934 | 22 | 46 | 0.0 | 0.0 | 0.00 | 0.00 | 0.00 | 63 | 1017.5 |
| 20260510133430 | 22 | 53 | 0.0 | 0.0 | 0.00 | 0.00 | 0.00 | 64 | 1017.5 |
| 20260510132926 | 22 | 61 | 0.0 | 1.6 | 0.00 | 0.00 | 0.00 | 66 | 1017.5 |
| 20260510132424 | 22 | 53 | 0.0 | 1.6 | 0.00 | 0.00 | 0.00 | 67 | 1017.7 |
| 20260510131920 | 22 | 18 | 0.0 | 1.6 | 0.00 | 0.00 | 0.00 | 66 | 1017.6 |
| 20260510131418 | 22 | 57 | 0.0 | 0.0 | 0.00 | 0.00 | 0.00 | 68 | 1017.6 |
| 20260510130914 | 22 | 66 | 0.0 | 0.0 | 0.00 | 0.00 | 0.00 | 68 | 1017.4 |
| 20260510130412 | 22 | 65 | 0.0 | 0.0 | 0.00 | 0.00 | 0.00 | 68 | 1017.2 |
| 20260510125909 | 22 | 76 | 0.0 | 1.6 | 0.00 | 0.00 | 0.00 | 69 | 1017.1 |
| 20260510125404 | 22 | 73 | 0.0 | 1.6 | 0.00 | 0.00 | 0.00 | 70 | 1017.1 |
| 20260510124902 | 22 | 81 | 0.0 | 1.6 | 0.00 | 0.00 | 0.00 | 69 | 1016.9 |
| 20260510124358 | 22 | 71 | 0.0 | 0.0 | 0.00 | 0.00 | 0.00 | 72 | 1017.1 |
| 20260510123854 | 21 | 50 | 0.0 | 0.0 | 0.00 | 0.00 | 0.00 | 75 | 1017.1 |
| 20260510123350 | 20 | 71 | 0.0 | 0.0 | 0.00 | 0.00 | 0.00 | 81 | 1017.0 |
| 20260510122846 | 19 | 80 | 0.0 | 0.0 | 0.00 | 0.00 | 0.00 | 85 | 1017.1 |
| 20260510122342 | 18 | 7 | 1.6 | 3.2 | 0.00 | 0.00 | 0.00 | 89 | 1017.1 |
| 20260510121838 | 17 | 65 | 0.0 | 0.0 | 0.00 | 0.00 | 0.00 | 94 | 1016.8 |
| 20260510121336 | 17 | 64 | 0.0 | 0.0 | 0.00 | 0.00 | 0.00 | 97 | 1017.0 |
| 20260510120833 | 17 | 64 | 0.0 | 0.0 | 0.00 | 0.00 | 0.00 | 97 | 1016.8 |
| 20260510120330 | 16 | 64 | 0.0 | 0.0 | 0.00 | 0.00 | 0.00 | 97 | 1016.8 |
| 20260510115826 | 16 | 64 | 0.0 | 0.0 | 0.00 | 0.00 | 0.00 | 97 | 1016.7 |
| 20260510115323 | 16 | 64 | 0.0 | 0.0 | 0.00 | 0.00 | 0.00 | 97 | 1016.9 |
| 20260510114819 | 16 | 64 | 0.0 | 0.0 | 0.00 | 0.00 | 0.00 | 97 | 1016.7 |
| 20260510114316 | 16 | 64 | 0.0 | 0.0 | 0.00 | 0.00 | 0.00 | 97 | 1016.8 |
| 20260510113811 | 15 | 67 | 0.0 | 0.0 | 0.00 | 0.00 | 0.00 | 97 | 1016.6 |
| 20260510113308 | 15 | 59 | 0.0 | 0.0 | 0.00 | 0.00 | 0.00 | 97 | 1016.2 |
| 20260510112805 | 15 | 52 | 0.0 | 0.0 | 0.00 | 0.00 | 0.00 | 97 | 1016.4 |
| 20260510112305 | 15 | 52 | 0.0 | 0.0 | 0.00 | 0.00 | 0.00 | 97 | 1016.4 |
| 20260510111757 | 15 | 52 | 0.0 | 0.0 | 0.00 | 0.00 | 0.00 | 97 | 1016.2 |
| 20260510111255 | 15 | 52 | 0.0 | 0.0 | 0.00 | 0.00 | 0.00 | 97 | 1016.3 |
| 20260510110754 | 15 | 52 | 0.0 | 0.0 | 0.00 | 0.00 | 0.00 | 97 | 1016.0 |
| 20260510110252 | 15 | 52 | 0.0 | 0.0 | 0.00 | 0.00 | 0.00 | 97 | 1016.1 |
| 20260510105752 | 15 | 52 | 0.0 | 0.0 | 0.00 | 0.00 | 0.00 | 97 | 1015.9 |
| 20260510105247 | 15 | 50 | 0.0 | 0.0 | 0.00 | 0.00 | 0.00 | 97 | 1015.9 |
| 20260510104743 | 15 | 47 | 0.0 | 0.0 | 0.00 | 0.00 | 0.00 | 97 | 1016.0 |
| 20260510104241 | 15 | 47 | 0.0 | 0.0 | 0.00 | 0.00 | 0.00 | 97 | 1015.8 |
| 20260510103737 | 15 | 39 | 0.0 | 0.0 | 0.00 | 0.00 | 0.00 | 97 | 1015.9 |
| 20260510103235 | 15 | 49 | 0.0 | 0.0 | 0.00 | 0.00 | 0.00 | 97 | 1015.5 |
| 20260510102734 | 15 | 50 | 0.0 | 0.0 | 0.00 | 0.00 | 0.00 | 97 | 1015.6 |
| 20260510102230 | 15 | 43 | 0.0 | 0.0 | 0.00 | 0.00 | 0.00 | 97 | 1015.4 |
| 20260510101728 | 15 | 46 | 0.0 | 0.0 | 0.00 | 0.00 | 0.00 | 97 | 1015.5 |
| 20260510101226 | 15 | 53 | 0.0 | 0.0 | 0.00 | 0.00 | 0.00 | 97 | 1015.3 |
| 20260510100722 | 15 | 53 | 0.0 | 0.0 | 0.00 | 0.00 | 0.00 | 97 | 1015.2 |
| 20260510100220 | 15 | 55 | 0.0 | 0.0 | 0.00 | 0.00 | 0.00 | 97 | 1015.2 |
| 20260510095715 | 15 | 66 | 0.0 | 0.0 | 0.00 | 0.00 | 0.00 | 97 | 1015.0 |
| 20260510095211 | 15 | 72 | 0.0 | 0.0 | 0.00 | 0.00 | 0.00 | 97 | 1015.0 |
| 20260510094709 | 15 | 54 | 0.0 | 0.0 | 0.00 | 0.00 | 0.00 | 97 | 1014.9 |
| 20260510094205 | 15 | 54 | 0.0 | 0.0 | 0.00 | 0.00 | 0.00 | 97 | 1014.8 |
| 20260510093701 | 15 | 54 | 0.0 | 0.0 | 0.00 | 0.00 | 0.00 | 97 | 1014.7 |
| 20260510093159 | 15 | 54 | 0.0 | 0.0 | 0.00 | 0.00 | 0.00 | 97 | 1014.8 |
| 20260510092655 | 15 | 54 | 0.0 | 0.0 | 0.00 | 0.00 | 0.00 | 97 | 1014.7 |
| 20260510092150 | 15 | 53 | 0.0 | 0.0 | 0.00 | 0.00 | 0.00 | 97 | 1014.7 |
| 20260510091646 | 15 | 53 | 0.0 | 0.0 | 0.00 | 0.00 | 0.00 | 97 | 1014.7 |
| 20260510091143 | 15 | 53 | 0.0 | 0.0 | 0.00 | 0.00 | 0.00 | 97 | 1014.7 |
| 20260510090640 | 15 | 60 | 0.0 | 0.0 | 0.00 | 0.00 | 0.00 | 97 | 1014.6 |
| 20260510090136 | 15 | 60 | 0.0 | 0.0 | 0.00 | 0.00 | 0.00 | 97 | 1014.3 |
| 20260510085631 | 15 | 61 | 0.0 | 0.0 | 0.00 | 0.00 | 0.00 | 97 | 1014.4 |
| 20260510085126 | 15 | 65 | 0.0 | 0.0 | 0.00 | 0.00 | 0.00 | 97 | 1014.4 |
| 20260510084623 | 15 | 65 | 0.0 | 0.0 | 0.00 | 0.00 | 0.00 | 97 | 1014.2 |
| 20260510084121 | 15 | 41 | 0.0 | 0.0 | 0.00 | 0.00 | 0.00 | 97 | 1014.3 |
| 20260510083617 | 15 | 41 | 0.0 | 0.0 | 0.00 | 0.00 | 0.00 | 97 | 1014.2 |
| 20260510083113 | 15 | 41 | 0.0 | 0.0 | 0.00 | 0.00 | 0.00 | 97 | 1014.2 |
| 20260510082610 | 15 | 41 | 0.0 | 0.0 | 0.00 | 0.00 | 0.00 | 97 | 1014.2 |
| 20260510082105 | 15 | 41 | 0.0 | 0.0 | 0.00 | 0.00 | 0.00 | 97 | 1014.3 |
| 20260510081600 | 15 | 41 | 0.0 | 0.0 | 0.00 | 0.00 | 0.00 | 97 | 1014.3 |
| 20260510081056 | 15 | 41 | 0.0 | 0.0 | 0.00 | 0.00 | 0.00 | 97 | 1014.3 |
| 20260510080555 | 15 | 41 | 0.0 | 0.0 | 0.00 | 0.00 | 0.00 | 96 | 1014.2 |
| 20260510080053 | 15 | 41 | 0.0 | 0.0 | 0.00 | 0.00 | 0.00 | 97 | 1014.1 |
| 20260510075550 | 15 | 41 | 0.0 | 0.0 | 0.00 | 0.00 | 0.00 | 96 | 1014.0 |
| 20260510075046 | 15 | 41 | 0.0 | 0.0 | 0.00 | 0.00 | 0.00 | 96 | 1014.1 |
| 20260510074544 | 15 | 41 | 0.0 | 0.0 | 0.00 | 0.00 | 0.00 | 96 | 1014.0 |
| 20260510074039 | 15 | 41 | 0.0 | 0.0 | 0.00 | 0.00 | 0.00 | 96 | 1014.1 |
| 20260510073536 | 15 | 41 | 0.0 | 0.0 | 0.00 | 0.00 | 0.00 | 96 | 1013.9 |
| 20260510073033 | 15 | 41 | 0.0 | 0.0 | 0.00 | 0.00 | 0.00 | 96 | 1014.0 |
| 20260510072529 | 15 | 41 | 0.0 | 0.0 | 0.00 | 0.00 | 0.00 | 96 | 1013.9 |
| 20260510072025 | 15 | 41 | 0.0 | 0.0 | 0.00 | 0.00 | 0.00 | 96 | 1014.0 |
| 20260510071521 | 15 | 41 | 0.0 | 0.0 | 0.00 | 0.00 | 0.00 | 96 | 1013.9 |
| 20260510071020 | 15 | 41 | 0.0 | 0.0 | 0.00 | 0.00 | 0.00 | 96 | 1013.8 |
| 20260510070516 | 15 | 41 | 0.0 | 0.0 | 0.00 | 0.00 | 0.00 | 96 | 1014.0 |
| 20260510070013 | 15 | 41 | 0.0 | 0.0 | 0.00 | 0.00 | 0.00 | 96 | 1013.9 |
| 20260510065509 | 15 | 41 | 0.0 | 0.0 | 0.00 | 0.00 | 0.00 | 96 | 1013.9 |
| 20260510065005 | 15 | 41 | 0.0 | 0.0 | 0.00 | 0.00 | 0.00 | 96 | 1014.2 |
| 20260510064503 | 15 | 41 | 0.0 | 0.0 | 0.00 | 0.00 | 0.00 | 96 | 1014.2 |
| 20260510063959 | 15 | 41 | 0.0 | 0.0 | 0.00 | 0.00 | 0.00 | 96 | 1014.1 |
| 20260510063455 | 15 | 41 | 0.0 | 0.0 | 0.00 | 0.00 | 0.00 | 96 | 1014.0 |
| 20260510062953 | 15 | 41 | 0.0 | 0.0 | 0.00 | 0.00 | 0.00 | 96 | 1014.0 |
| 20260510062449 | 15 | 41 | 0.0 | 0.0 | 0.00 | 0.00 | 0.00 | 96 | 1014.0 |
| 20260510061944 | 15 | 41 | 0.0 | 0.0 | 0.00 | 0.00 | 0.00 | 96 | 1013.8 |
| 20260510061441 | 15 | 41 | 0.0 | 0.0 | 0.00 | 0.00 | 0.00 | 96 | 1013.9 |
| 20260510060937 | 15 | 41 | 0.0 | 0.0 | 0.00 | 0.00 | 0.00 | 96 | 1014.1 |
| 20260510060434 | 15 | 41 | 0.0 | 0.0 | 0.00 | 0.00 | 0.00 | 96 | 1014.0 |
| 20260510055930 | 15 | 41 | 0.0 | 0.0 | 0.00 | 0.00 | 0.00 | 96 | 1013.9 |
| 20260510055426 | 15 | 41 | 0.0 | 0.0 | 0.00 | 0.00 | 0.00 | 96 | 1013.8 |
| 20260510054925 | 15 | 52 | 0.0 | 0.0 | 0.00 | 0.00 | 0.00 | 96 | 1014.2 |
| 20260510054420 | 15 | 52 | 0.0 | 0.0 | 0.00 | 0.00 | 0.00 | 96 | 1013.9 |
| 20260510053915 | 15 | 53 | 0.0 | 0.0 | 0.00 | 0.00 | 0.00 | 96 | 1014.1 |
| 20260510053411 | 15 | 53 | 0.0 | 0.0 | 0.00 | 0.00 | 0.00 | 96 | 1014.0 |
| 20260510052907 | 15 | 53 | 0.0 | 0.0 | 0.00 | 0.00 | 0.00 | 96 | 1014.2 |
| 20260510052403 | 15 | 53 | 0.0 | 0.0 | 0.00 | 0.00 | 0.00 | 95 | 1014.4 |
| 20260510051859 | 15 | 53 | 0.0 | 0.0 | 0.00 | 0.00 | 0.00 | 95 | 1014.4 |
| 20260510051356 | 15 | 53 | 0.0 | 0.0 | 0.00 | 0.00 | 0.00 | 95 | 1014.3 |
| 20260510050853 | 15 | 53 | 0.0 | 0.0 | 0.00 | 0.00 | 0.00 | 95 | 1014.4 |
| 20260510050349 | 15 | 53 | 0.0 | 0.0 | 0.00 | 0.00 | 0.00 | 95 | 1014.4 |
| 20260510045846 | 15 | 53 | 0.0 | 0.0 | 0.00 | 0.00 | 0.00 | 95 | 1014.4 |
| 20260510045343 | 15 | 53 | 0.0 | 0.0 | 0.00 | 0.00 | 0.00 | 95 | 1014.3 |
| 20260510044840 | 15 | 53 | 0.0 | 0.0 | 0.00 | 0.00 | 0.00 | 95 | 1014.5 |
| 20260510044337 | 15 | 55 | 0.0 | 0.0 | 0.00 | 0.00 | 0.00 | 95 | 1014.6 |
| 20260510043834 | 15 | 35 | 0.0 | 0.0 | 0.00 | 0.00 | 0.00 | 95 | 1014.6 |
| 20260510043329 | 15 | 41 | 0.0 | 0.0 | 0.00 | 0.00 | 0.00 | 95 | 1014.6 |
| 20260510042828 | 15 | 53 | 0.0 | 0.0 | 0.00 | 0.00 | 0.00 | 95 | 1014.5 |
| 20260510042323 | 15 | 54 | 0.0 | 0.0 | 0.00 | 0.00 | 0.00 | 95 | 1014.5 |
| 20260510041820 | 15 | 59 | 0.0 | 0.0 | 0.00 | 0.00 | 0.00 | 95 | 1014.4 |
| 20260510041317 | 15 | 48 | 0.0 | 0.0 | 0.00 | 0.00 | 0.00 | 95 | 1014.5 |
| 20260510040814 | 15 | 48 | 0.0 | 0.0 | 0.00 | 0.00 | 0.00 | 95 | 1014.6 |
| 20260510040311 | 16 | 48 | 0.0 | 0.0 | 0.00 | 0.00 | 0.00 | 95 | 1014.5 |
| 20260510035806 | 16 | 48 | 0.0 | 0.0 | 0.00 | 0.00 | 0.00 | 95 | 1014.6 |
| 20260510035306 | 16 | 48 | 0.0 | 0.0 | 0.00 | 0.00 | 0.00 | 95 | 1014.5 |
| 20260510034758 | 16 | 48 | 0.0 | 0.0 | 0.00 | 0.00 | 0.00 | 95 | 1014.3 |
| 20260510034256 | 16 | 48 | 0.0 | 0.0 | 0.00 | 0.00 | 0.00 | 94 | 1014.3 |
| 20260510033752 | 16 | 48 | 0.0 | 0.0 | 0.00 | 0.00 | 0.00 | 94 | 1014.5 |
| 20260510033250 | 16 | 48 | 0.0 | 0.0 | 0.00 | 0.00 | 0.00 | 94 | 1014.3 |
| 20260510032746 | 16 | 52 | 0.0 | 0.0 | 0.00 | 0.00 | 0.00 | 94 | 1014.3 |
| 20260510032242 | 16 | 55 | 0.0 | 0.0 | 0.00 | 0.00 | 0.00 | 94 | 1014.3 |
| 20260510031738 | 16 | 55 | 0.0 | 0.0 | 0.00 | 0.00 | 0.00 | 94 | 1014.1 |
| 20260510031233 | 16 | 55 | 0.0 | 0.0 | 0.00 | 0.00 | 0.00 | 94 | 1014.4 |
| 20260510030733 | 16 | 55 | 0.0 | 0.0 | 0.00 | 0.00 | 0.00 | 94 | 1014.2 |
| 20260510030231 | 16 | 58 | 0.0 | 0.0 | 0.00 | 0.00 | 0.00 | 93 | 1014.1 |
| 20260510025728 | 16 | 58 | 0.0 | 0.0 | 0.00 | 0.00 | 0.00 | 93 | 1014.2 |
| 20260510025225 | 16 | 61 | 0.0 | 0.0 | 0.00 | 0.00 | 0.00 | 93 | 1014.2 |
| 20260510024722 | 16 | 60 | 0.0 | 0.0 | 0.00 | 0.00 | 0.00 | 93 | 1014.2 |
| 20260510024219 | 16 | 32 | 0.0 | 0.0 | 0.00 | 0.00 | 0.00 | 92 | 1014.0 |
| 20260510023714 | 16 | 32 | 0.0 | 0.0 | 0.00 | 0.00 | 0.00 | 92 | 1014.1 |
| 20260510023212 | 16 | 32 | 0.0 | 0.0 | 0.00 | 0.00 | 0.00 | 92 | 1014.0 |
| 20260510022707 | 16 | 27 | 0.0 | 0.0 | 0.00 | 0.00 | 0.00 | 92 | 1014.2 |
| 20260510022202 | 16 | 27 | 0.0 | 0.0 | 0.00 | 0.00 | 0.00 | 92 | 1013.8 |
| 20260510021658 | 16 | 27 | 0.0 | 0.0 | 0.00 | 0.00 | 0.00 | 92 | 1013.9 |
| 20260510021155 | 17 | 35 | 0.0 | 0.0 | 0.00 | 0.00 | 0.00 | 91 | 1014.0 |
| 20260510020649 | 17 | 48 | 0.0 | 0.0 | 0.00 | 0.00 | 0.00 | 91 | 1014.0 |
| 20260510020145 | 17 | 34 | 0.0 | 0.0 | 0.00 | 0.00 | 0.00 | 91 | 1013.9 |
| 20260510015641 | 17 | 34 | 0.0 | 0.0 | 0.00 | 0.00 | 0.00 | 91 | 1014.0 |
| 20260510015138 | 17 | 27 | 0.0 | 0.0 | 0.00 | 0.00 | 0.00 | 90 | 1013.8 |
| 20260510014638 | 17 | 48 | 0.0 | 0.0 | 0.00 | 0.00 | 0.00 | 90 | 1013.9 |
| 20260510014136 | 17 | 48 | 0.0 | 0.0 | 0.00 | 0.00 | 0.00 | 89 | 1013.6 |
| 20260510013631 | 17 | 48 | 0.0 | 0.0 | 0.00 | 0.00 | 0.00 | 88 | 1013.5 |
| 20260510013126 | 17 | 48 | 0.0 | 0.0 | 0.00 | 0.00 | 0.00 | 88 | 1013.4 |
| 20260510012626 | 17 | 48 | 0.0 | 0.0 | 0.00 | 0.00 | 0.00 | 88 | 1013.5 |
| 20260510012123 | 17 | 48 | 0.0 | 0.0 | 0.00 | 0.00 | 0.00 | 87 | 1013.3 |
| 20260510011622 | 17 | 48 | 0.0 | 0.0 | 0.00 | 0.00 | 0.00 | 86 | 1013.2 |
| 20260510011118 | 18 | 48 | 0.0 | 0.0 | 0.00 | 0.00 | 0.00 | 86 | 1013.3 |
| 20260510010615 | 18 | 48 | 0.0 | 0.0 | 0.00 | 0.00 | 0.00 | 85 | 1013.2 |
| 20260510010113 | 18 | 48 | 0.0 | 0.0 | 0.00 | 0.00 | 0.00 | 85 | 1013.0 |
| 20260510005608 | 18 | 48 | 0.0 | 0.0 | 0.00 | 0.00 | 0.00 | 84 | 1013.1 |
| 20260510005105 | 18 | 55 | 0.0 | 0.0 | 0.00 | 0.00 | 0.00 | 83 | 1013.0 |
| 20260510004603 | 18 | 55 | 0.0 | 0.0 | 0.00 | 0.00 | 0.00 | 82 | 1013.0 |
| 20260510004101 | 19 | 55 | 0.0 | 0.0 | 0.00 | 0.00 | 0.00 | 82 | 1013.0 |
| 20260510003557 | 19 | 50 | 0.0 | 0.0 | 0.00 | 0.00 | 0.00 | 81 | 1013.1 |
| 20260510003053 | 20 | 49 | 0.0 | 0.0 | 0.00 | 0.00 | 0.00 | 80 | 1012.9 |
| 20260510002548 | 20 | 40 | 0.0 | 0.0 | 0.00 | 0.00 | 0.00 | 79 | 1013.0 |
| 20260510002046 | 20 | 38 | 0.0 | 0.0 | 0.00 | 0.00 | 0.00 | 78 | 1013.2 |
| 20260510001543 | 20 | 41 | 0.0 | 0.0 | 0.00 | 0.00 | 0.00 | 77 | 1013.0 |
| 20260510001041 | 20 | 41 | 0.0 | 0.0 | 0.00 | 0.00 | 0.00 | 76 | 1013.1 |
| 20260510000536 | 21 | 41 | 0.0 | 0.0 | 0.00 | 0.00 | 0.00 | 75 | 1012.9 |
| 20260510000033 | 21 | 57 | 0.0 | 0.0 | 0.00 | 0.00 | 0.00 | 74 | 1012.9 |
| 20260509235530 | 21 | 57 | 0.0 | 0.0 | 0.00 | 0.00 | 0.00 | 73 | 1012.8 |
| 20260509235027 | 21 | 57 | 0.0 | 0.0 | 0.00 | 0.00 | 0.00 | 72 | 1013.0 |
| 20260509234523 | 21 | 57 | 0.0 | 0.0 | 0.00 | 0.00 | 0.00 | 71 | 1012.6 |
| 20260509234021 | 21 | 59 | 0.0 | 0.0 | 0.00 | 0.00 | 0.00 | 70 | 1012.5 |
| 20260509233518 | 22 | 60 | 0.0 | 0.0 | 0.00 | 0.00 | 0.00 | 69 | 1012.5 |
| 20260509233015 | 22 | 52 | 0.0 | 1.6 | 0.00 | 0.00 | 0.00 | 69 | 1012.4 |
| 20260509232512 | 22 | 55 | 0.0 | 1.6 | 0.00 | 0.00 | 0.00 | 69 | 1012.7 |
| 20260509232008 | 22 | 94 | 0.0 | 0.0 | 0.00 | 0.00 | 0.00 | 68 | 1012.6 |
| 20260509231505 | 22 | 60 | 0.0 | 3.2 | 0.00 | 0.00 | 0.00 | 68 | 1012.5 |
| 20260509231002 | 22 | 40 | 0.0 | 0.0 | 0.00 | 0.00 | 0.00 | 67 | 1012.3 |
| 20260509230459 | 22 | 277 | 3.2 | 6.4 | 0.00 | 0.00 | 0.00 | 66 | 1012.2 |
| 20260509225955 | 22 | 10 | 0.0 | 1.6 | 0.00 | 0.00 | 0.00 | 67 | 1012.4 |
| 20260509225452 | 22 | 75 | 0.0 | 1.6 | 0.00 | 0.00 | 0.00 | 67 | 1012.2 |
| 20260509224947 | 22 | 88 | 0.0 | 3.2 | 0.00 | 0.00 | 0.00 | 65 | 1012.0 |
| 20260509224443 | 22 | 67 | 0.0 | 1.6 | 0.00 | 0.00 | 0.00 | 66 | 1012.0 |
| 20260509223940 | 22 | 321 | 1.6 | 11.3 | 0.00 | 0.00 | 0.00 | 65 | 1012.0 |
| 20260509223437 | 22 | 2 | 1.6 | 3.2 | 0.00 | 0.00 | 0.00 | 65 | 1012.3 |
| 20260509222935 | 23 | 174 | 1.6 | 3.2 | 0.00 | 0.00 | 0.00 | 65 | 1012.1 |
| 20260509222429 | 23 | 208 | 3.2 | 3.2 | 0.00 | 0.00 | 0.00 | 65 | 1012.1 |
| 20260509221926 | 23 | 188 | 3.2 | 4.8 | 0.00 | 0.00 | 0.00 | 65 | 1012.3 |
| 20260509221422 | 23 | 178 | 1.6 | 3.2 | 0.00 | 0.00 | 0.00 | 65 | 1012.4 |
| 20260509220918 | 23 | 45 | 0.0 | 1.6 | 0.00 | 0.00 | 0.00 | 65 | 1012.4 |
| 20260509220414 | 23 | 110 | 1.6 | 3.2 | 0.00 | 0.00 | 0.00 | 65 | 1012.2 |
| 20260509215910 | 22 | 219 | 1.6 | 1.6 | 0.00 | 0.00 | 0.00 | 66 | 1012.2 |
| 20260509215406 | 23 | 25 | 1.6 | 3.2 | 0.00 | 0.00 | 0.00 | 65 | 1012.3 |
| 20260509214904 | 23 | 302 | 1.6 | 3.2 | 0.00 | 0.00 | 0.00 | 65 | 1012.3 |
| 20260509214401 | 22 | 333 | 0.0 | 4.8 | 0.00 | 0.00 | 0.00 | 66 | 1012.3 |
| 20260509213858 | 22 | 203 | 3.2 | 4.8 | 0.00 | 0.00 | 0.00 | 65 | 1012.2 |
| 20260509213353 | 22 | 251 | 0.0 | 4.8 | 0.00 | 0.00 | 0.00 | 66 | 1012.3 |
| 20260509212851 | 22 | 152 | 1.6 | 3.2 | 0.00 | 0.00 | 0.00 | 66 | 1012.3 |
| 20260509212348 | 22 | 270 | 1.6 | 6.4 | 0.00 | 0.00 | 0.00 | 65 | 1012.1 |
| 20260509211844 | 22 | 174 | 1.6 | 1.6 | 0.00 | 0.00 | 0.00 | 65 | 1012.2 |
| 20260509211340 | 23 | 112 | 1.6 | 3.2 | 0.00 | 0.00 | 0.00 | 64 | 1012.2 |
| 20260509210837 | 22 | 223 | 1.6 | 1.6 | 0.00 | 0.00 | 0.00 | 64 | 1012.1 |
| 20260509210335 | 23 | 189 | 4.8 | 4.8 | 0.00 | 0.00 | 0.00 | 63 | 1012.0 |
| 20260509205834 | 23 | 22 | 4.8 | 6.4 | 0.00 | 0.00 | 0.00 | 63 | 1012.1 |